Terug naar catalogus

NOAA 16 DEB

ActiefSSO
NORAD 41077·DEBRIS·🇺🇸 United States

Gelanceerd Sep 21, 2000 vanaf Vandenberg Space Force Base

Loading…

Volgende Passages (komende 24 uur)

TLE

VersSource: Space-Track

Epoch: Sep 14, 2026, 06:49 UTC

1 41077U 00055AL  26257.28412169  .00000256  00000-0  21471-3 0  9995
2 41077  98.8078 264.8035 0111892 301.4515  57.5747 13.93983500548654

Volg NOAA 16 DEB in realtime met AllMySat

Download on the App Store